#timestamp,LO_Frequency,Hit,StdDev 
1563555615.7,286046996.6,Y
1563555635.6,286046999.0,P
1563555655.4,286046999.5,N
1563555675.2,286046996.5,P
1563555695.1,286046999.1,N
1563555696.0,286046999.1,N
1563555715.8,286046999.4,N
1563555735.7,286046999.3,N
1563555755.5,286046996.5,Y
1563555775.3,286047001.0,P
1563555795.2,286047000.7,N
1563555815.0,286046998.5,N
1563555815.9,286046998.5,N
1563555835.8,286047000.3,N
1563555855.6,286047000.6,N
1563555875.4,286046999.1,N
1563555895.3,286046996.9,Y
1563555915.1,286047000.7,P
1563555935.8,286047000.0,N
1563555955.7,286047000.2,N
1563555975.5,286047001.9,Y
1563555995.4,286047002.1,P
1563556015.2,286047002.5,N
1563556035.0,286047004.3,P
1563556035.9,286047004.3,N
1563556055.8,286047004.1,N
1563556075.6,286047004.4,N
1563556095.5,286047003.6,N
1563556115.3,286047002.5,N
1563556135.1,286047002.8,N
1563556155.9,286047004.4,Y
1563556175.7,286047001.2,P
1563556195.6,286046999.0,N
1563556215.4,286046999.5,N
1563556235.2,286046997.0,N
1563556255.1,286046998.7,N
1563556256.0,286046998.7,N
1563556275.8,286046997.5,N
1563556295.7,286046998.7,N
1563556315.5,286046999.4,N
1563556335.3,286046998.7,N
1563556355.2,286046998.5,N
1563556375.0,286047000.6,N
1563556375.9,286047000.6,N
1563556395.7,286047000.9,N
1563556415.6,286046998.1,N
1563556435.4,286046998.7,N
1563556455.3,286046999.3,N
1563556475.1,286046999.5,N
1563556495.8,286046997.0,N
1563556515.7,286046999.6,N
1563556535.5,286046999.2,N
1563556555.4,286047001.1,N
1563556575.2,286047002.4,N
1563556595.0,286046999.8,N
1563556595.9,286046999.8,N
1563556615.8,286047000.2,N
1563556635.6,286047000.4,N
1563556655.4,286046999.9,N
1563556675.3,286047000.3,N
1563556695.1,286046998.8,N
1563556715.9,286046999.3,N
1563556735.7,286046998.9,N
1563556755.5,286046998.6,N
1563556775.4,286046998.7,N
1563556795.2,286047001.0,N
1563556815.1,286047000.3,N
1563556816.0,286047000.3,N
1563556835.8,286047001.1,N
1563556855.6,286046998.4,N
1563556875.5,286046999.0,N
1563556895.3,286046998.9,N
1563556915.1,286046998.5,N
1563556935.9,286047001.0,N
1563556955.7,286047000.1,N
1563556975.6,286047000.9,N
1563556995.4,286047000.6,N
1563557015.2,286047000.0,N
1563557035.1,286047000.3,N
1563557036.0,286047000.3,N
1563557055.8,286047000.0,N
1563557075.7,286047002.8,N
1563557095.5,286047000.2,N
1563557115.3,286047002.4,N
1563557135.2,286047001.3,N
1563557155.8,286046999.7,N
1563557175.6,286047000.1,N
1563557195.5,286047001.1,N
1563557215.3,286046999.4,N
1563557235.1,286046998.3,N
1563557255.9,286047000.5,N
1563557275.7,286047000.6,N
1563557295.5,286046998.2,N
1563557315.4,286047000.5,N
1563557335.2,286046999.9,N
1563557355.1,286047011.9,Y
1563557356.0,286047002.8,P
1563557375.8,286047000.1,N
1563557395.6,286047001.9,N
1563557415.5,286047001.9,N
1563557435.3,286047001.8,N
1563557455.2,286047002.6,N
1563557475.9,286047002.8,N
1563557495.7,286047000.1,N
1563557515.6,286047000.3,N
1563557535.4,286047000.2,N
1563557555.2,286047002.7,N
1563557575.1,286047002.2,N
1563557576.0,286047002.2,N
1563557595.8,286047002.3,N
1563557615.7,286047000.0,N
1563557635.5,286047002.7,N
1563557655.3,286047002.4,N
1563557675.2,286047000.2,N
1563557695.0,286047001.1,N
1563557715.5,286047000.6,N
1563557735.4,286047000.5,N
1563557755.2,286046999.0,N
1563557775.1,286046996.6,N
1563557776.0,286046996.6,N
1563557795.8,286046998.9,N
1563557815.6,286046998.5,N
1563557835.5,286046998.8,N
1563557855.3,286047000.3,N
1563557875.2,286047000.5,N
1563557895.9,286047000.3,N
1563557915.7,286047002.3,N
1563557935.6,286047000.6,N
1563557955.4,286046998.9,N
1563557975.3,286046998.8,N
1563557995.1,286047001.1,N
1563557996.0,286047001.1,N
1563558015.8,286047000.6,N
1563558035.7,286046999.7,N
1563558055.5,286047002.2,N
1563558075.3,286047002.2,N
1563558095.2,286047004.4,N
1563558115.0,286047003.7,N
1563558115.9,286047003.7,N
1563558135.8,286047002.9,N
1563558155.6,286047003.4,N
1563558175.4,286047003.8,N
1563558195.3,286047003.4,N
1563558215.1,286047003.6,N
1563558235.9,286047003.2,N
1563558255.7,286047003.2,N
1563558275.5,286047003.5,N
1563558295.4,286047003.3,N
1563558315.2,286047003.8,N
1563558335.1,286047003.0,N
1563558336.0,286047003.0,N
1563558355.8,286047003.0,N
1563558375.6,286047005.8,Y
1563558395.5,286047001.3,P
1563558415.3,286047004.3,P
1563558435.1,286047002.3,N
1563558455.9,286047000.3,N
1563558475.7,286047000.5,N
1563558495.6,286047000.0,N
1563558515.4,286046999.7,N
1563558535.2,286046999.8,N
1563558555.1,286047002.3,N
1563558556.0,286047002.3,N
1563558575.8,286047002.5,N
1563558595.7,286047004.3,Y
1563558615.5,286046999.7,P
1563558635.3,286047000.6,N
1563558655.2,286047001.1,N
1563558675.0,286046998.2,N
1563558675.9,286046998.2,N
1563558695.7,286046998.8,N
1563558715.6,286046998.7,N
1563558735.4,286046999.2,N
1563558755.3,286046999.1,N
1563558775.1,286046997.3,N
1563558776.0,286046997.3,N
1563558795.8,286046996.9,N
1563558815.7,286046997.0,N
1563558835.5,286046997.1,N
1563558855.4,286046997.2,N
1563558875.2,286046998.0,N
1563558895.0,286046995.0,Y
1563558895.9,286046995.0,P
1563558915.8,286046997.7,N
1563558935.6,286046997.4,N
1563558955.5,286046997.1,N
1563558975.3,286046997.1,N
1563558995.1,286046999.6,N
1563559015.9,286046996.7,N
1563559035.7,286046996.6,N
1563559055.5,286046999.5,N
1563559075.4,286046996.5,N
1563559095.2,286046997.0,N
1563559115.1,286047000.9,N
1563559116.0,286047000.9,N
1563559135.8,286046999.5,N
1563559155.6,286046997.5,N
1563559175.5,286046996.8,N
1563559195.3,286046997.8,N
